Home   Weather   Troisdorf   Past weeks

Flag for Germany Past Weather in Troisdorf, North Rhine-Westphalia, Germany — Yesterday and Last 2 Weeks

Now
39 °F

Passing clouds.


Feels Like: 35 °F
Forecast: 31 / 43 °F
Wind: 6 mph from Southeast

Location: Koeln / Bonn

Current Time: Dec 7, 2016 at 9:09:47 pm

Latest Report: Dec 7, 2016 at 8:20 pm


Visibility: N/A

Pressure: 30.48 "Hg

Humidity: 81%

Dew Point: 34 °F

Location of TroisdorfLocation

Past Weather in Troisdorf — Graph

°F

Troisdorf Temperature Yesterday

Maximum temperature yesterday: 39 °F (at 1:50 pm)
Minimum temperature yesterday: 27 °F (at 8:50 am)
Average temperature yesterday: 32 °F

High & Low Weather Summary for the Past Weeks

 TemperatureHumidityPressure
High61 °F (Nov 24, 1:20 pm)100% (Nov 23, 12:20 am)30.57 "Hg (Nov 23, 12:20 am)
Low18 °F (Nov 30, 6:50 am)44% (Nov 25, 3:20 pm)29.95 "Hg (Nov 22, 7:20 pm)
Average37 °F84%30.28 "Hg
* Reported Nov 22 7:20 pm — Dec 7 7:50 pm, Troisdorf, Weather by CustomWeather, © 2016

Note: Actual official high and low records may vary slightly from our data, if they occured in-between our weather recording intervals... More about our weather records

Advertising

Troisdorf Weather History for the Previous 24 Hours

Scroll right to see more
 ConditionsComfort  
Time TempWeatherWind HumidityBarometerVisibility
7:50 pm
Wed, Dec 7
39 °FPassing clouds.7 mph81%30.48 "HgN/A
7:20 pm39 °FPassing clouds.6 mph81%30.48 "HgN/A
6:50 pm39 °FPassing clouds.7 mph81%30.48 "HgN/A
6:20 pm39 °FPassing clouds.5 mph81%30.45 "HgN/A
5:50 pm39 °FPassing clouds.6 mph81%30.45 "HgN/A
5:20 pm39 °FClear.7 mph81%30.45 "Hg10 mi
4:50 pm39 °FClear.6 mph81%30.45 "Hg10 mi
4:20 pm41 °FSunny.7 mph76%30.45 "Hg10 mi
3:20 pm41 °FSunny.8 mph76%30.45 "Hg10 mi
2:50 pm41 °FPassing clouds.8 mph76%30.45 "HgN/A
2:20 pm41 °FSunny.9 mph70%30.45 "Hg10 mi
1:50 pm39 °FPassing clouds.6 mph75%30.45 "HgN/A
1:20 pm39 °FPassing clouds.7 mph75%30.45 "HgN/A
12:50 pm37 °FPassing clouds.8 mph81%30.48 "HgN/A
12:20 pm37 °FPassing clouds.9 mph75%30.48 "HgN/A
11:50 am36 °FSunny.12 mph81%30.48 "Hg10 mi
11:20 am36 °FSunny.9 mph81%30.51 "Hg10 mi
10:50 am34 °FSunny.8 mph81%30.51 "Hg10 mi
10:20 am34 °FSunny.7 mph81%30.51 "Hg10 mi
9:50 am32 °FPassing clouds.7 mph87%30.51 "HgN/A
9:20 am32 °FPassing clouds.7 mph87%30.48 "HgN/A
8:50 am32 °FPassing clouds.5 mph87%30.48 "HgN/A
8:20 am30 °FPassing clouds.8 mph86%30.48 "HgN/A
7:50 am30 °FClear.7 mph86%30.48 "Hg10 mi
7:20 am30 °FClear.7 mph86%30.48 "Hg10 mi
6:50 am30 °FClear.8 mph86%30.48 "Hg10 mi
6:20 am30 °FClear.7 mph86%30.48 "Hg10 mi
5:50 am30 °FPassing clouds.6 mph86%30.48 "HgN/A
5:20 am30 °FPassing clouds.7 mph86%30.48 "HgN/A
4:50 am30 °FPassing clouds.6 mph86%30.51 "HgN/A
4:20 am30 °FPassing clouds.7 mph86%30.51 "HgN/A
3:50 am30 °FPassing clouds.8 mph86%30.51 "HgN/A
3:20 am30 °FPassing clouds.6 mph86%30.48 "HgN/A
2:50 am30 °FPassing clouds.6 mph86%30.51 "HgN/A
2:20 am30 °FPassing clouds.6 mph86%30.48 "HgN/A
1:50 am30 °FClear.7 mph86%30.51 "Hg10 mi
1:20 am30 °FClear.6 mph86%30.51 "Hg10 mi
12:50 am30 °FPassing clouds.5 mph86%30.51 "HgN/A
12:20 am30 °FClear.6 mph86%30.51 "Hg10 mi
11:50 pm
Tue, Dec 6
30 °FPassing clouds.6 mph86%30.48 "HgN/A
11:20 pm30 °FClear.5 mph86%30.48 "Hg10 mi
10:50 pm30 °FClear.5 mph93%30.48 "Hg10 mi
10:20 pm32 °FClear.5 mph87%30.48 "Hg10 mi
9:50 pm32 °FClear.5 mph87%30.48 "Hg10 mi
9:20 pm32 °FClear.3 mph87%30.48 "Hg10 mi
Weather by CustomWeather, © 2016

See weather overviewHow to use our weather pages